Regional Weather Roundup
Issued by NWS Northern Indiana

Home | Current Version | Previous Version | Graphics & Text | Print | Product List | Glossary On
Versions: 1 2 3 4 5 6 7 8 9 10 11 12 13 14 15 16 17 18 19 20 21 22 23 24 25 26 27 28 29 30 31 32 33 34 35 36 37 38 39 40 41 42 43 44 45 46 47 48 49 50
712
ASUS43 KIWX 281710
RWRIWX

KIWX WEATHER ROUNDUP
NATIONAL WEATHER SERVICE NORTHERN INDIANA
100 PM EDT TUE MAR 28 2017

NOTE: "FAIR" INDICATES FEW OR NO CLOUDS BELOW 12,000 FEET WITH NO
SIGNIFICANT WEATHER AND/OR OBSTRUCTIONS TO VISIBILITY.

* THESE STATIONS ARE NOT UNDER NWS QUALITY CONTROL. THEY ALSO MAY NOT
  REPORT WEATHER SUCH AS PRECIPITATION OR FOG.

INZ001>027-281800-
NORTHERN INDIANA

CITY           SKY/WX    TMP DP  RH WIND       PRES   REMARKS
GARY*          CLOUDY    45  37  76 N14       30.13R
VALPARAISO     CLOUDY    42  40  92 N8        30.12R FOG
MICHIGAN CITY* CLOUDY    39  39 100 N8        30.12R FOG
LAPORTE*       CLOUDY    42  40  93 N9        30.11R FOG
KNOX*          CLOUDY    45  27  49 NW10      30.10R
SOUTH BEND     CLOUDY    44  40  85 NW6       30.10R
ELKHART*       CLOUDY    46  41  81 N6        30.08R
GOSHEN         CLOUDY    46  40  79 NE5       30.07R
MONTICELLO*    CLOUDY    50  41  70 N9        30.07F
LOGANSPORT*    CLOUDY    50  43  76 N9        30.08S
ROCHESTER*     CLOUDY    50  43  76 N7        30.07S
WARSAW*        CLOUDY    45  41  87 N6        30.07S
ANGOLA*        CLOUDY    45  34  65 N7        30.06R
FORT WAYNE     CLOUDY    50  44  80 N9        30.05S
HUNTINGTON*    CLOUDY    50  46  85 N6        30.06R
PERU/GRISSOM   CLOUDY    51  46  83 N7        30.05R
MARION*        CLOUDY    52  45  78 N8        30.06R

$$
INZ028>050-281800-
CENTRAL INDIANA

CITY           SKY/WX    TMP DP  RH WIND       PRES   REMARKS
LAFAYETTE      CLOUDY    52  45  77 N12       30.07F
KOKOMO*        CLOUDY    52  44  74 N9        30.07R
MUNCIE*        CLOUDY    51  47  86 N9        30.04R
INDIANAPOLIS   PTSUNNY   58  47  66 N10       30.04S

$$
MIZ043>046-050>051-056>058-064>065-071>073-077>080-281800-
SOUTHWEST LOWER MICHIGAN

CITY           SKY/WX    TMP DP  RH WIND       PRES   REMARKS
BATTLE CREEK   CLOUDY    45  39  79 NE10      30.08S
BENTON HARBOR  CLOUDY    43  37  79 VRB6      30.11R
COLDWATER*     CLOUDY    46  40  81 NE9       30.06S
HILLSDALE*     CLOUDY    45  37  76 N5        30.06R
HOLLAND        CLOUDY    47  38  71 VRB3      30.12R
GRAND RAPIDS   CLOUDY    45  40  82 E7        30.10R
KALAMAZOO      CLOUDY    46  38  73 N9        30.09S
STURGIS*       CLOUDY    46  40  80 E9        30.06S
THREE RIVERS*  CLOUDY    46  40  78 NE8       30.08R

$$
OHZ001>008-015>018-024>025-281800-
NORTHWEST OHIO

CITY           SKY/WX    TMP DP  RH WIND       PRES   REMARKS
WAUSEON*       CLOUDY    48  43  81 N14       30.05S
DEFIANCE       CLOUDY    46  43  89 NE9       30.06R FOG
FINDLAY        CLOUDY    49  40  71 NE12      30.03S
TOLEDO EXPRESS CLOUDY    48  41  76 N9        30.04S
TOLEDO METCALF CLOUDY    49  41  74 N5        30.06R
LIMA             N/A     48  45  89 MISG      30.03S

$$
AND FOR LAKE MICHIGAN COASTAL AND OPEN LAKE BUOY OBSERVATIONS

STATION/POSITION TEMP    WIND        PRES    VSBY  WAVE
                 AIR SEA DIR/SP/G                  HT/PER
                 (F)     (DEG/KT/KT) (MB)    (MI)  (FT/S)
CALUMET HARBOR    39     340/ 12/ 17 1019.9R
BURNS HARBOR      38     350/ 10/ 13 1020.3

$$
&&




USA.gov is the U.S. government's official web portal to all federal, state and local government web resources and services.